• Join FlightAware (Why Join?)
  • Login
  • US Flag GB Flag 
16:13 EST


 

Airport Tracker/Info


-or-


 

Live Flight TrackerFlight Track Log ✈ RPA3275 ✈ 19-Jul-2013 ✈ KALB - KPHL

Flight Track Log - Related Links

Times and Time Zones

All times are in EDT time to prevent confusion due to time zone crossing. See the RPA3275 flight status page for this flight to view local times or setup timezone preferences in your user account.

Time Position Orientation Groundspeed Altitude Reporting Facility
EDT Latitude Longitude Course Direction KTS MPH feet Rate Location/Type
07:23 42.7361 -73.8083 220° Southwest 139 160 1,200  Level Boston Center
07:24 42.7047 -73.8075 179° South 176 203 2,400 2,040 Climbing Boston Center
07:24 42.6833 -73.8550 239° Southwest 212 244 4,100 2,580 Climbing Boston Center
07:25 42.6428 -73.9303 234° Southwest 251 289 6,800 3,000 Climbing Boston Center
07:26 42.7306 -74.3055 236° Southwest  Level FlightAware Approximate
07:26 42.6042 -74.0197 240° Southwest 256 295 10,100  Level Boston Center
07:27 42.6641 -74.3926 220° Southwest  Level FlightAware Approximate
07:27 42.5653 -74.1006 237° Southwest 271 312 13,000  Level Boston Center
07:28 42.5924 -74.4732 220° Southwest  Level FlightAware Approximate
07:28 42.5286 -74.1842 239° Southwest 278 320 15,400  Level Boston Center
07:29 42.4811 -74.2897 239° Southwest 290 334 18,000 1,800 Climbing Boston Center
07:30 42.4567 -74.3847 251° West 296 341 19,000 480 Climbing Boston Center
07:31 42.4564 -74.5142 270° West 305 351 19,000  Level Boston Center
07:32 42.4525 -74.6181 267° West 310 357 19,000  Level Boston Center
07:35 42.2917 -74.8103 222° Southwest 299 344 19,000  Level New York Center
07:36 42.2186 -74.8786 215° Southwest 317 365 19,000  Level New York Center
07:37 42.1475 -74.9525 218° Southwest 323 372 19,000  Level New York Center
07:38 42.0717 -75.0314 218° Southwest 323 372 19,000  Level New York Center
07:39 42.0006 -75.1022 217° Southwest 323 372 19,000  Level New York Center
07:40 41.9272 -75.1672 213° Southwest 323 372 19,000  Level New York Center
07:41 41.8608 -75.2183 210° Southwest 323 372 19,000  Level New York Center
07:42 41.7856 -75.2831 213° Southwest 318 366 19,000 -780 Level New York Center
07:43 41.7019 -75.3494 211° Southwest 323 372 17,500 -1,560 Descending New York Center
07:44 41.6267 -75.4081 210° Southwest 323 372 15,900 -1,620 Descending New York Center
07:45 41.5556 -75.4669 212° Southwest 318 366 14,400 -1,560 Descending New York Center
07:46 41.4933 -75.5181 212° Southwest 307 353 12,900 -1,200 Descending New York Center
07:47 41.4222 -75.5711 209° Southwest 307 353 12,000 -480 Descending New York Center
07:48 41.3469 -75.6292 210° Southwest 294 338 12,000  Level New York Center
07:49 41.2783 -75.6822 210° Southwest 294 338 12,000  Level New York Center
07:50 41.1967 -75.6900 184° South 288 331 12,000 -360 Level New York Center
07:51 41.1217 -75.6875 179° South 298 343 11,300 -1,020 Descending New York Center
07:52 41.0406 -75.6869 180° South 298 343 10,000 -660 Descending New York Center
07:53 40.9511 -75.6861 180° South 293 337 10,000  Level New York Center
07:54 40.8781 -75.6864 180° South 294 338 10,000  Level New York Center
07:55 40.7989 -75.6833 178° South 294 338 10,000  Level New York Center
07:56 40.7114 -75.6853 181° South 294 338 10,000  Level New York Center
07:57 40.6303 -75.6850 180° South 294 338 10,000  Level New York Center
07:58 40.5653 -75.6447 155° Southeast 289 333 10,000  Level New York Center
07:59 40.5144 -75.5567 127° Southeast 283 326 10,100  Climbing New York Center
08:00 40.4625 -75.4547 124° Southeast 303 349 10,000 -60 Descending New York Center
08:01 40.3917 -75.3981 149° Southeast 298 343 10,000 -180 Level New York Center
08:02 40.3286 -75.3611 156° South 287 330 9,700 -600 Descending New York Center
08:03 40.2681 -75.3625 181° South 237 273 8,900 -1,140 Descending New York Center
08:04 40.2297 -75.4336 235° Southwest 205 236 7,400 -960 Descending New York Center
08:05 40.1767 -75.4572 199° South 224 258 7,100 -180 Descending New York Center
08:06 40.1589 -75.3800 107° East 172 198 7,100 -480 Level New York Center
08:07 40.2072 -75.3150 46° Northeast 159 183 6,200 -540 Descending New York Center
08:08 40.2125 -75.2367 85° East 215 247 6,100 -60 Descending New York Center
08:09 40.1636 -75.2036 153° Southeast 170 196 6,100  Level New York Center
08:10 40.1167 -75.2000 177° South 207 238 6,100 -60 Level Philadelphia TRACON
08:11 40.0667 -75.2000 180° South 204 235 6,000  Descending Philadelphia TRACON
08:12 40.0167 -75.1667 153° Southeast 221 254 6,100  Climbing Philadelphia TRACON
08:13 40.0167 -75.0833 90° East 216 249 6,000 -60 Descending Philadelphia TRACON
08:14 40.0333 -75.0167 72° East 203 234 6,000 -540 Level Philadelphia TRACON
08:15 40.0500 -74.9500 72° East 203 234 5,000 -540 Descending Philadelphia TRACON
08:16 40.0500 -74.8667 90° East 202 232 5,000  Level Philadelphia TRACON
08:17 40.0500 -74.8167 90° East 190 219 5,000  Level Philadelphia TRACON
08:17 40.0000 -74.8000 166° South 186 214 5,000 -540 Level Philadelphia TRACON
08:19 39.9667 -74.8333 217° Southwest 166 191 4,000 -540 Descending Philadelphia TRACON
08:19 39.9500 -74.8833 247° West 168 193 4,000  Level Philadelphia TRACON
08:21 39.9333 -74.9500 252° West 170 196 4,000 -300 Level Philadelphia TRACON
08:21 39.9167 -75.0000 247° West 168 193 3,500 -720 Descending Philadelphia TRACON
08:22 39.9167 -75.0500 270° West 164 189 2,700 -840 Descending Philadelphia TRACON
08:24 39.9000 -75.1167 252° West 153 176 1,700 -780 Descending Philadelphia TRACON
08:25 39.8833 -75.1500 237° Southwest 105 121 1,100 -660 Descending Philadelphia TRACON
08:25 39.8833 -75.1833 270° West 113 130 600 -660 Descending Philadelphia TRACON
08:27 39.8667 -75.2333 247° West  Level FlightAware Approximate
08:34 39.8722 -75.2409 247° West  Level Estimated